Location: Unspecified
(0.0000°N, 0.0000°E)
Time: 11:18:27
(UTC-01:00)

Tiangong 1 - Visible Passes

Search period start: 19 February 2018 00:00
Search period end: 01 March 2018 00:00
Orbit: 249 x 271 km, 42.8° (Epoch: 19 February)

Date Brightness Start Highest point End Pass type
(mag) Time Alt. Az. Time Alt. Az. Time Alt. Az.
22 Feb 1.9 17:41:06 10° S 17:42:57 21° SE 17:44:39 11° E visible
23 Feb 0.3 17:34:04 10° SW 17:36:21 58° SE 17:38:35 10° NE visible
24 Feb 3.3 04:44:52 10° NNE 04:45:59 13° NE 04:47:06 10° ENE visible
25 Feb 2.1 04:36:56 10° NNW 04:38:58 28° NE 04:41:00 10° ESE visible
26 Feb 0.1 04:29:58 15° NW 04:31:40 88° NE 04:33:56 10° SE visible
27 Feb 1.2 04:23:38 26° WSW 04:24:07 30° SW 04:26:11 10° SSE visible
28 Feb 2.8 04:17:00 12° SSW 04:17:00 12° SSW 04:17:32 10° SSW visible
